|
NORAD ID: 23603 Int'l Code: 1995-032A
Perigee: 973.3 km
Apogee: 1,020.6 km
Inclination: 82.9 °
Period: 104.9 minutes
Semi major axis: 7367 km
Launch date: July 5, 1995
Source: Commonwealth of Independent States (former USSR) (CIS)
Two Line Element Set (TLE):
1 23603U 95032A 13144.75993853 .00000066 00000-0 54564-4 0 3810
2 23603 082.9039 192.6182 0032106 146.5157 351.5736 13.72725366896237
Source:
NASA's NSSDC Master Catalog entry for COSMOS 2315
|